Location: ?
(35.4214°N, 139.3011°E)
Time: 22:37:08
(UTC+00:00)

SL-08 RB Rocket - Pass Details

Date: 14 July 2020
Orbit: 648 x 683 km, 97.8° (Epoch: 10 August)

Event Time Altitude Azimuth Distance (km) Brightness Sun altitude
Rises 10:45:18 0° 176° (S) 2,947 6.7 -9.0°
Reaches altitude 10° 10:47:32 10° 180° (S) 2,043 5.9 -9.3°
Maximum altitude 10:51:55 59° 259° (W) 752 4.2 -10.1°
Drops below altitude 10° 10:56:23 10° 340° (NNW) 2,070 7.2 -10.8°
Sets 10:58:39 0° 344° (NNW) 2,991 8.0 -11.2°
